Time,TemperatureF,DewpointF,PressureIn,WindDirection,WindDirectionDegrees,WindSpeedMPH,WindSpeedGustMPH,Humidity,HourlyPrecipIn,Conditions,Clouds,dailyrainin,SoftwareType,DateUTC
2013-05-29 00:00:00,81.0,-99.9,30.02,East,80,18.0,22.0,-999,-99.99,,,-99.99,,2013-05-29 04:00:00,
2013-05-29 00:33:00,81.0,-99.9,30.02,East,80,18.0,22.0,-999,-99.99,,,-99.99,,2013-05-29 04:33:00,
2013-05-29 00:42:00,81.0,-99.9,30.02,East,80,18.0,22.0,-999,-99.99,,,-99.99,,2013-05-29 04:42:00,
2013-05-29 00:53:00,81.0,-99.9,30.02,East,80,18.0,22.0,-999,-99.99,,,-99.99,,2013-05-29 04:53:00,
2013-05-29 01:22:00,81.0,-99.9,30.01,East,80,18.0,22.0,-999,-99.99,,,-99.99,,2013-05-29 05:22:00,
2013-05-29 01:33:00,81.0,-99.9,30.01,East,80,18.0,22.0,-999,-99.99,,,-99.99,,2013-05-29 05:33:00,
2013-05-29 01:42:00,81.0,-99.9,30.01,East,80,18.0,22.0,-999,-99.99,,,-99.99,,2013-05-29 05:42:00,
2013-05-29 01:52:00,81.0,-99.9,30.01,East,80,18.0,22.0,-999,-99.99,,,-99.99,,2013-05-29 05:52:00,
2013-05-29 02:02:00,81.0,-99.9,30.00,East,90,20.0,25.0,-999,-99.99,,,-99.99,,2013-05-29 06:02:00,
2013-05-29 02:12:00,81.0,-99.9,30.00,East,90,20.0,25.0,-999,-99.99,,,-99.99,,2013-05-29 06:12:00,
2013-05-29 02:22:00,81.0,-99.9,30.00,East,90,20.0,25.0,-999,-99.99,,,-99.99,,2013-05-29 06:22:00,
2013-05-29 02:32:00,81.0,-99.9,29.99,East,90,18.0,22.0,-999,-99.99,,,-99.99,,2013-05-29 06:32:00,
2013-05-29 02:42:00,81.0,-99.9,29.99,East,90,18.0,22.0,-999,-99.99,,,-99.99,,2013-05-29 06:42:00,
2013-05-29 02:52:00,81.0,-99.9,29.99,East,90,18.0,22.0,-999,-99.99,,,-99.99,,2013-05-29 06:52:00,
2013-05-29 03:01:00,81.0,-99.9,30.00,East,90,18.0,22.0,-999,-99.99,,,-99.99,,2013-05-29 07:01:00,
2013-05-29 03:12:00,81.0,-99.9,30.00,East,90,18.0,22.0,-999,-99.99,,,-99.99,,2013-05-29 07:12:00,
2013-05-29 03:22:00,81.0,-99.9,30.00,East,90,18.0,22.0,-999,-99.99,,,-99.99,,2013-05-29 07:22:00,
2013-05-29 03:35:00,81.0,-99.9,29.99,East,90,18.0,20.0,-999,-99.99,,,-99.99,,2013-05-29 07:35:00,
2013-05-29 03:42:00,81.0,-99.9,29.99,East,90,18.0,20.0,-999,-99.99,,,-99.99,,2013-05-29 07:42:00,
2013-05-29 03:53:00,81.0,-99.9,29.99,East,90,18.0,20.0,-999,-99.99,,,-99.99,,2013-05-29 07:53:00,
2013-05-29 04:02:00,81.0,-99.9,29.98,East,90,16.0,20.0,-999,-99.99,,,-99.99,,2013-05-29 08:02:00,
2013-05-29 04:11:00,81.0,-99.9,29.98,East,90,16.0,20.0,-999,-99.99,,,-99.99,,2013-05-29 08:11:00,
2013-05-29 04:22:00,81.0,-99.9,29.98,East,90,16.0,20.0,-999,-99.99,,,-99.99,,2013-05-29 08:22:00,
2013-05-29 04:32:00,81.0,-99.9,29.98,East,90,18.0,20.0,-999,-99.99,,,-99.99,,2013-05-29 08:32:00,
2013-05-29 04:42:00,81.0,-99.9,29.98,East,90,18.0,20.0,-999,-99.99,,,-99.99,,2013-05-29 08:42:00,
2013-05-29 04:52:00,81.0,-99.9,29.98,East,90,18.0,20.0,-999,-99.99,,,-99.99,,2013-05-29 08:52:00,
2013-05-29 05:02:00,80.0,-99.9,29.98,East,90,18.0,22.0,-999,-99.99,,,-99.99,,2013-05-29 09:02:00,
2013-05-29 05:11:00,80.0,-99.9,29.98,East,90,18.0,22.0,-999,-99.99,,,-99.99,,2013-05-29 09:11:00,
2013-05-29 05:22:00,80.0,-99.9,29.98,East,90,18.0,22.0,-999,-99.99,,,-99.99,,2013-05-29 09:22:00,
2013-05-29 05:33:00,81.0,-99.9,29.99,East,90,16.0,20.0,-999,-99.99,,,-99.99,,2013-05-29 09:33:00,
2013-05-29 05:42:00,81.0,-99.9,29.99,East,90,16.0,20.0,-999,-99.99,,,-99.99,,2013-05-29 09:42:00,
2013-05-29 05:53:00,81.0,-99.9,29.99,East,90,16.0,20.0,-999,-99.99,,,-99.99,,2013-05-29 09:53:00,
2013-05-29 06:03:00,81.0,-99.9,29.99,East,90,16.0,20.0,-999,-99.99,,,-99.99,,2013-05-29 10:03:00,
2013-05-29 06:12:00,81.0,-99.9,29.99,East,90,16.0,20.0,-999,-99.99,,,-99.99,,2013-05-29 10:12:00,
2013-05-29 06:22:00,81.0,-99.9,29.99,East,90,16.0,20.0,-999,-99.99,,,-99.99,,2013-05-29 10:22:00,
2013-05-29 06:33:00,80.0,-99.9,29.99,East,100,11.0,16.0,-999,-99.99,,,-99.99,,2013-05-29 10:33:00,
2013-05-29 06:42:00,80.0,-99.9,29.99,East,100,11.0,16.0,-999,-99.99,,,-99.99,,2013-05-29 10:42:00,
2013-05-29 06:53:00,80.0,-99.9,29.99,East,100,11.0,16.0,-999,-99.99,,,-99.99,,2013-05-29 10:53:00,
2013-05-29 07:02:00,80.0,-99.9,30.00,East,90,16.0,22.0,-999,-99.99,,,-99.99,,2013-05-29 11:02:00,
2013-05-29 07:12:00,80.0,-99.9,30.00,East,90,16.0,22.0,-999,-99.99,,,-99.99,,2013-05-29 11:12:00,
2013-05-29 07:22:00,80.0,-99.9,30.00,East,90,16.0,22.0,-999,-99.99,,,-99.99,,2013-05-29 11:22:00,
2013-05-29 07:32:00,81.0,-99.9,30.00,East,100,18.0,22.0,-999,-99.99,,,-99.99,,2013-05-29 11:32:00,
2013-05-29 07:42:00,81.0,-99.9,30.00,East,100,18.0,22.0,-999,-99.99,,,-99.99,,2013-05-29 11:42:00,
2013-05-29 07:52:00,81.0,-99.9,30.00,East,100,18.0,22.0,-999,-99.99,,,-99.99,,2013-05-29 11:52:00,
2013-05-29 08:01:00,80.0,-99.9,30.01,East,90,18.0,22.0,-999,-99.99,,,-99.99,,2013-05-29 12:01:00,
2013-05-29 08:11:00,80.0,-99.9,30.01,East,90,18.0,22.0,-999,-99.99,,,-99.99,,2013-05-29 12:11:00,
2013-05-29 08:22:00,80.0,-99.9,30.01,East,90,18.0,22.0,-999,-99.99,,,-99.99,,2013-05-29 12:22:00,
2013-05-29 08:32:00,81.0,-99.9,30.01,East,90,18.0,22.0,-999,-99.99,,,-99.99,,2013-05-29 12:32:00,
2013-05-29 08:42:00,81.0,-99.9,30.01,East,90,18.0,22.0,-999,-99.99,,,-99.99,,2013-05-29 12:42:00,
2013-05-29 08:52:00,81.0,-99.9,30.01,East,90,18.0,22.0,-999,-99.99,,,-99.99,,2013-05-29 12:52:00,
2013-05-29 09:02:00,81.0,-99.9,30.01,East,90,16.0,20.0,-999,-99.99,,,-99.99,,2013-05-29 13:02:00,
2013-05-29 09:11:00,81.0,-99.9,30.01,East,90,16.0,20.0,-999,-99.99,,,-99.99,,2013-05-29 13:11:00,
2013-05-29 09:22:00,81.0,-99.9,30.01,East,90,16.0,20.0,-999,-99.99,,,-99.99,,2013-05-29 13:22:00,
2013-05-29 09:32:00,81.0,-99.9,30.03,East,90,18.0,20.0,-999,-99.99,,,-99.99,,2013-05-29 13:32:00,
2013-05-29 09:42:00,81.0,-99.9,30.03,East,90,18.0,20.0,-999,-99.99,,,-99.99,,2013-05-29 13:42:00,
2013-05-29 09:53:00,81.0,-99.9,30.03,East,90,18.0,20.0,-999,-99.99,,,-99.99,,2013-05-29 13:53:00,
2013-05-29 10:02:00,81.0,-99.9,30.02,East,90,18.0,22.0,-999,-99.99,,,-99.99,,2013-05-29 14:02:00,
2013-05-29 10:11:00,81.0,-99.9,30.02,East,90,18.0,22.0,-999,-99.99,,,-99.99,,2013-05-29 14:11:00,
2013-05-29 10:22:00,81.0,-99.9,30.02,East,90,18.0,22.0,-999,-99.99,,,-99.99,,2013-05-29 14:22:00,
2013-05-29 10:30:00,81.0,-99.9,30.02,East,90,18.0,22.0,-999,-99.99,,,-99.99,,2013-05-29 14:30:00,
2013-05-29 10:32:00,81.0,-99.9,30.02,East,80,18.0,22.0,-999,-99.99,,,-99.99,,2013-05-29 14:32:00,
2013-05-29 10:42:00,81.0,-99.9,30.02,East,80,18.0,22.0,-999,-99.99,,,-99.99,,2013-05-29 14:42:00,
2013-05-29 10:52:00,81.0,-99.9,30.02,East,80,18.0,22.0,-999,-99.99,,,-99.99,,2013-05-29 14:52:00,
2013-05-29 11:00:00,81.0,-99.9,30.02,East,80,16.0,20.0,-999,-99.99,,,-99.99,,2013-05-29 15:00:00,
2013-05-29 11:01:00,81.0,-99.9,30.02,East,90,18.0,22.0,-999,-99.99,,,-99.99,,2013-05-29 15:01:00,
2013-05-29 11:11:00,81.0,-99.9,30.02,East,90,18.0,22.0,-999,-99.99,,,-99.99,,2013-05-29 15:11:00,
2013-05-29 11:22:00,81.0,-99.9,30.02,East,90,18.0,22.0,-999,-99.99,,,-99.99,,2013-05-29 15:22:00,
2013-05-29 11:43:00,81.0,-99.9,30.02,East,80,16.0,20.0,-999,-99.99,,,-99.99,,2013-05-29 15:43:00,
2013-05-29 11:53:00,81.0,-99.9,30.02,East,80,16.0,20.0,-999,-99.99,,,-99.99,,2013-05-29 15:53:00,
2013-05-29 12:33:00,81.0,-99.9,30.02,East,80,18.0,22.0,-999,-99.99,,,-99.99,,2013-05-29 16:33:00,
2013-05-29 12:42:00,81.0,-99.9,30.02,East,80,18.0,22.0,-999,-99.99,,,-99.99,,2013-05-29 16:42:00,
2013-05-29 12:52:00,81.0,-99.9,30.02,East,80,18.0,22.0,-999,-99.99,,,-99.99,,2013-05-29 16:52:00,
2013-05-29 13:02:00,81.0,-99.9,30.01,East,80,18.0,20.0,-999,-99.99,,,-99.99,,2013-05-29 17:02:00,
2013-05-29 13:12:00,81.0,-99.9,30.01,East,80,18.0,20.0,-999,-99.99,,,-99.99,,2013-05-29 17:12:00,
2013-05-29 13:22:00,81.0,-99.9,30.01,East,80,18.0,20.0,-999,-99.99,,,-99.99,,2013-05-29 17:22:00,
2013-05-29 13:33:00,81.0,-99.9,30.01,East,80,18.0,22.0,-999,-99.99,,,-99.99,,2013-05-29 17:33:00,
2013-05-29 13:43:00,81.0,-99.9,30.01,East,80,18.0,22.0,-999,-99.99,,,-99.99,,2013-05-29 17:43:00,
2013-05-29 13:52:00,81.0,-99.9,30.01,East,80,18.0,22.0,-999,-99.99,,,-99.99,,2013-05-29 17:52:00,
2013-05-29 14:02:00,81.0,-99.9,30.00,East,80,18.0,22.0,-999,-99.99,,,-99.99,,2013-05-29 18:02:00,
2013-05-29 14:13:00,81.0,-99.9,30.00,East,80,18.0,22.0,-999,-99.99,,,-99.99,,2013-05-29 18:13:00,
2013-05-29 14:22:00,81.0,-99.9,30.00,East,80,18.0,22.0,-999,-99.99,,,-99.99,,2013-05-29 18:22:00,
2013-05-29 14:32:00,81.0,-99.9,29.99,ENE,70,18.0,20.0,-999,-99.99,,,-99.99,,2013-05-29 18:32:00,
2013-05-29 14:42:00,81.0,-99.9,29.99,ENE,70,18.0,20.0,-999,-99.99,,,-99.99,,2013-05-29 18:42:00,
2013-05-29 14:52:00,81.0,-99.9,29.99,ENE,70,18.0,20.0,-999,-99.99,,,-99.99,,2013-05-29 18:52:00,
2013-05-29 15:02:00,81.0,-99.9,29.98,East,80,18.0,22.0,-999,-99.99,,,-99.99,,2013-05-29 19:02:00,
2013-05-29 15:12:00,81.0,-99.9,29.98,East,80,18.0,22.0,-999,-99.99,,,-99.99,,2013-05-29 19:12:00,
2013-05-29 15:22:00,81.0,-99.9,29.98,East,80,18.0,22.0,-999,-99.99,,,-99.99,,2013-05-29 19:22:00,
2013-05-29 15:32:00,81.0,-99.9,29.97,East,80,20.0,22.0,-999,-99.99,,,-99.99,,2013-05-29 19:32:00,
2013-05-29 15:44:00,81.0,-99.9,29.97,East,80,20.0,22.0,-999,-99.99,,,-99.99,,2013-05-29 19:44:00,
2013-05-29 15:53:00,81.0,-99.9,29.97,East,80,20.0,22.0,-999,-99.99,,,-99.99,,2013-05-29 19:53:00,
2013-05-29 16:03:00,81.0,-99.9,29.98,East,80,18.0,22.0,-999,-99.99,,,-99.99,,2013-05-29 20:03:00,
2013-05-29 16:12:00,81.0,-99.9,29.98,East,80,18.0,22.0,-999,-99.99,,,-99.99,,2013-05-29 20:12:00,
2013-05-29 16:23:00,81.0,-99.9,29.98,East,80,18.0,22.0,-999,-99.99,,,-99.99,,2013-05-29 20:23:00,
2013-05-29 16:33:00,81.0,-99.9,29.97,ENE,70,18.0,22.0,-999,-99.99,,,-99.99,,2013-05-29 20:33:00,
2013-05-29 16:42:00,81.0,-99.9,29.97,ENE,70,18.0,22.0,-999,-99.99,,,-99.99,,2013-05-29 20:42:00,
2013-05-29 16:53:00,81.0,-99.9,29.97,ENE,70,18.0,22.0,-999,-99.99,,,-99.99,,2013-05-29 20:53:00,
2013-05-29 17:02:00,81.0,-99.9,29.97,ENE,70,18.0,25.0,-999,-99.99,,,-99.99,,2013-05-29 21:02:00,
2013-05-29 17:12:00,81.0,-99.9,29.97,ENE,70,18.0,25.0,-999,-99.99,,,-99.99,,2013-05-29 21:12:00,
2013-05-29 17:22:00,81.0,-99.9,29.97,ENE,70,18.0,25.0,-999,-99.99,,,-99.99,,2013-05-29 21:22:00,
2013-05-29 17:34:00,81.0,-99.9,29.98,East,80,18.0,22.0,-999,-99.99,,,-99.99,,2013-05-29 21:34:00,
2013-05-29 17:44:00,81.0,-99.9,29.98,East,80,18.0,22.0,-999,-99.99,,,-99.99,,2013-05-29 21:44:00,
2013-05-29 17:53:00,81.0,-99.9,29.98,East,80,18.0,22.0,-999,-99.99,,,-99.99,,2013-05-29 21:53:00,
2013-05-29 18:03:00,81.0,-99.9,29.98,ENE,70,18.0,25.0,-999,-99.99,,,-99.99,,2013-05-29 22:03:00,
2013-05-29 18:13:00,81.0,-99.9,29.98,ENE,70,18.0,25.0,-999,-99.99,,,-99.99,,2013-05-29 22:13:00,
2013-05-29 18:23:00,81.0,-99.9,29.98,ENE,70,18.0,25.0,-999,-99.99,,,-99.99,,2013-05-29 22:23:00,
2013-05-29 18:34:00,81.0,-99.9,29.98,East,80,18.0,25.0,-999,-99.99,,,-99.99,,2013-05-29 22:34:00,
2013-05-29 18:43:00,81.0,-99.9,29.98,East,80,18.0,25.0,-999,-99.99,,,-99.99,,2013-05-29 22:43:00,
2013-05-29 18:53:00,81.0,-99.9,29.98,East,80,18.0,25.0,-999,-99.99,,,-99.99,,2013-05-29 22:53:00,
2013-05-29 19:02:00,81.0,-99.9,29.99,East,80,18.0,22.0,-999,-99.99,,,-99.99,,2013-05-29 23:02:00,
2013-05-29 19:12:00,81.0,-99.9,29.99,East,80,18.0,22.0,-999,-99.99,,,-99.99,,2013-05-29 23:12:00,
2013-05-29 19:22:00,81.0,-99.9,29.99,East,80,18.0,22.0,-999,-99.99,,,-99.99,,2013-05-29 23:22:00,
2013-05-29 19:33:00,81.0,-99.9,30.00,ENE,70,20.0,25.0,-999,-99.99,,,-99.99,,2013-05-29 23:33:00,
2013-05-29 19:43:00,81.0,-99.9,30.00,ENE,70,20.0,25.0,-999,-99.99,,,-99.99,,2013-05-29 23:43:00,
2013-05-29 19:53:00,81.0,-99.9,30.00,ENE,70,20.0,25.0,-999,-99.99,,,-99.99,,2013-05-29 23:53:00,
2013-05-29 20:02:00,81.0,-99.9,30.01,East,80,18.0,22.0,-999,-99.99,,,-99.99,,2013-05-30 00:02:00,
2013-05-29 20:12:00,81.0,-99.9,30.01,East,80,18.0,22.0,-999,-99.99,,,-99.99,,2013-05-30 00:12:00,
2013-05-29 20:22:00,81.0,-99.9,30.01,East,80,18.0,22.0,-999,-99.99,,,-99.99,,2013-05-30 00:22:00,
2013-05-29 20:32:00,81.0,-99.9,30.01,ENE,70,20.0,22.0,-999,-99.99,,,-99.99,,2013-05-30 00:32:00,
2013-05-29 20:42:00,81.0,-99.9,30.01,ENE,70,20.0,22.0,-999,-99.99,,,-99.99,,2013-05-30 00:42:00,
2013-05-29 20:52:00,81.0,-99.9,30.01,ENE,70,20.0,22.0,-999,-99.99,,,-99.99,,2013-05-30 00:52:00,
2013-05-29 21:02:00,81.0,-99.9,30.03,East,80,20.0,22.0,-999,-99.99,,,-99.99,,2013-05-30 01:02:00,
2013-05-29 21:11:00,81.0,-99.9,30.03,East,80,20.0,22.0,-999,-99.99,,,-99.99,,2013-05-30 01:11:00,
2013-05-29 21:22:00,81.0,-99.9,30.03,East,80,20.0,22.0,-999,-99.99,,,-99.99,,2013-05-30 01:22:00,
2013-05-29 21:32:00,81.0,-99.9,30.03,ENE,70,20.0,25.0,-999,-99.99,,,-99.99,,2013-05-30 01:32:00,
2013-05-29 21:42:00,81.0,-99.9,30.03,ENE,70,20.0,25.0,-999,-99.99,,,-99.99,,2013-05-30 01:42:00,
2013-05-29 21:53:00,81.0,-99.9,30.03,ENE,70,20.0,25.0,-999,-99.99,,,-99.99,,2013-05-30 01:53:00,
2013-05-29 22:02:00,81.0,-99.9,30.03,ENE,70,20.0,25.0,-999,-99.99,,,-99.99,,2013-05-30 02:02:00,
2013-05-29 22:12:00,81.0,-99.9,30.03,ENE,70,20.0,25.0,-999,-99.99,,,-99.99,,2013-05-30 02:12:00,
2013-05-29 22:22:00,81.0,-99.9,30.03,ENE,70,20.0,25.0,-999,-99.99,,,-99.99,,2013-05-30 02:22:00,
2013-05-29 22:32:00,81.0,-99.9,30.04,ENE,70,20.0,25.0,-999,-99.99,,,-99.99,,2013-05-30 02:32:00,
2013-05-29 22:42:00,81.0,-99.9,30.04,ENE,70,20.0,25.0,-999,-99.99,,,-99.99,,2013-05-30 02:42:00,
2013-05-29 22:52:00,81.0,-99.9,30.04,ENE,70,20.0,25.0,-999,-99.99,,,-99.99,,2013-05-30 02:52:00,
2013-05-29 23:02:00,81.0,-99.9,30.04,East,80,20.0,25.0,-999,-99.99,,,-99.99,,2013-05-30 03:02:00,
2013-05-29 23:12:00,81.0,-99.9,30.04,East,80,20.0,25.0,-999,-99.99,,,-99.99,,2013-05-30 03:12:00,
2013-05-29 23:22:00,81.0,-99.9,30.04,East,80,20.0,25.0,-999,-99.99,,,-99.99,,2013-05-30 03:22:00,
2013-05-29 23:33:00,81.0,-99.9,30.05,East,80,20.0,22.0,-999,-99.99,,,-99.99,,2013-05-30 03:33:00,
2013-05-29 23:43:00,81.0,-99.9,30.05,East,80,20.0,22.0,-999,-99.99,,,-99.99,,2013-05-30 03:43:00,
2013-05-29 23:53:00,81.0,-99.9,30.05,East,80,20.0,22.0,-999,-99.99,,,-99.99,,2013-05-30 03:53:00,